Weather in Zaragoza

Spain     41°39′31″N   0°53′19″E
temp.,
°C
wind,
m/s
gust,
m/s
humid.,
%
clouds,
%
prec.,
mm/h
press.,
hPa
HPBL,
m
13 may, thu
thu1323:00+11nnw8126540 0.0 1018722
02:00+11nw6116843 0.0 1018588
05:00+9wnw367772 0.0 1017154
08:00+10w237799 0.0 1017153
11:00+15wsw23555 0.0 1016863
14:00+19w233893 0.0 10131361
17:00+19nw91046100 0.1 10121871
20:00+15nw2469100 1.1 1012347
14 may, fri
fri1423:00+14nw2478100 1.0 1013199
02:00+12nw5990100 2.1 1013506
05:00+11wnw71282100 0.6 1014949
08:00+10nw9147322 0.6 1016964
11:00+14nw1012524 0.0 10171198
14:00+18nw91140100 0.0 10161949
17:00+19nw8103469 0.0 10151939
20:00+18nnw5740100 0.0 1015724
15 may, sat
sat1523:00+14n1152100 0.0 101514
02:00+14se2248100 0.0 101417
05:00+14ese2350100 0.0 101344
08:00+15nw1256100 0.0 1013107
11:00+18nne2345100 0.0 1013499
14:00+22nne2239100 0.0 1012802
17:00+26w483797 0.0 10101495
20:00+23nw7114858 0.0 1010472
16 may, sun
sun1623:00+19nnw236040 0.0 101237
02:00+18w346837 0.0 1012122
05:00+17wnw127829 0.0 101127
08:00+18wnw127396 0.0 1012101
11:00+21w3457100 0.0 1012881
14:00+22nw8654100 0.0 1012840
17:00+20nw785647 0.0 1012944
20:00+17nw896030 0.0 1013624
17 may, mon
mon1723:00+13nw9135931 0.0 1017548
02:00+13nw8135794 0.0 1017780
05:00+12wnw7126357 0.0 1018829
08:00+11nw71260100 0.0 1020893
11:00+14nw91342100 0.0 10211264
14:00+18nw1012314 0.0 10202074
17:00+20nnw11132971 0.0 10192471
20:00+16nnw111440100 0.0 10211393